Weather History for Abilene, TX

Change the Weather History Date:

Saturday, April 12, 2014

  Actual Average Record
Temperature  
Mean Temperature 79 °F 64 °F  
Max Temperature 91 °F 77 °F 98 °F (1972)
Min Temperature 67 °F 51 °F 28 °F (1997)
Degree Days  
Heating Degree Days 0 4  
Month to date heating degree days 41 63  
Since 1 July heating degree days 2743 2494  
Cooling Degree Days 14 3  
Month to date cooling degree days 71 28  
Year to date cooling degree days 115 62  
Growing Degree Days 28 (Base 50)    
Moisture  
Dew Point 53 °F    
Average Humidity 44    
Maximum Humidity 68    
Minimum Humidity 19    
Precipitation  
Precipitation 0.00 in 0.05 in 1.85 in (1954)
Month to date precipitation 0.17 0.55  
Year to date precipitation 1.33 4.67  
Sea Level Pressure  
Sea Level Pressure 29.72 in    
Wind  
Wind Speed 17 mph (South)    
Max Wind Speed 28 mph    
Max Gust Speed 35 mph    
Visibility 10 miles    
Events      
T = Trace of Precipitation, MM = Missing Value Source: NWS Daily Summary

Daily Weather History Graph

Daily Weather History Graph

Search for Another Location

Airport:

Trip Planner

Search our weather history database for the weather conditions in past years. The results will help you decide how hot, cold, wet, or windy it might be!

Date:

Astronomy

Apr. 12, 2014 Rise Set
Actual Time 7:13 AM CDT 8:06 PM CDT
Civil Twilight 6:47 AM CDT 8:31 PM CDT
Nautical Twilight 6:18 AM CDT 9:01 PM CDT
Astronomical Twilight 5:47 AM CDT 9:31 PM CDT
Moon 5:53 PM CDT (4/12) 5:31 AM CDT (4/12)
Length of Visible Light 13h 43m
Length of Day
12h 53m
Waxing Gibbous, 93% of the Moon is Illuminated
Apr 12
Waxing Gibbous
Apr 15
Full
Apr 22
Last Quarter
Apr 29
New
May 6
First Quarter

Hourly Weather History & Observations

Time (CDT) Temp. Heat Index Dew Point Humidity Pressure Visibility Wind Dir Wind Speed Gust Speed Precip Events Conditions
12:52 AM 75.9 °F - 48.0 °F 37% 29.79 in 10.0 mi SSE 16.1 mph 23.0 mph N/A   Clear
1:52 AM 73.9 °F - 48.0 °F 40% 29.81 in 10.0 mi SSE 9.2 mph - N/A   Clear
2:52 AM 72.0 °F - 48.0 °F 43% 29.79 in 10.0 mi SSE 10.4 mph - N/A   Clear
3:52 AM 71.1 °F - 50.0 °F 47% 29.77 in 10.0 mi South 16.1 mph - N/A   Clear
4:52 AM 71.1 °F - 52.0 °F 51% 29.76 in 10.0 mi South 17.3 mph - N/A   Clear
5:52 AM 69.1 °F - 55.0 °F 61% 29.76 in 10.0 mi South 15.0 mph - N/A   Clear
6:52 AM 68.0 °F - 55.9 °F 65% 29.78 in 10.0 mi South 11.5 mph - N/A   Clear
7:52 AM 66.9 °F - 55.9 °F 68% 29.80 in 10.0 mi South 15.0 mph 25.3 mph N/A   Clear
8:52 AM 68.0 °F - 57.0 °F 68% 29.80 in 10.0 mi South 17.3 mph 28.8 mph N/A   Clear
9:52 AM 70.0 °F - 57.0 °F 63% 29.81 in 10.0 mi South 13.8 mph 27.6 mph N/A   Clear
10:52 AM 73.0 °F - 57.0 °F 57% 29.81 in 10.0 mi South 20.7 mph 25.3 mph N/A   Clear
11:52 AM 78.1 °F - 57.0 °F 48% 29.78 in 10.0 mi South 24.2 mph 33.4 mph N/A   Clear
12:52 PM 82.0 °F 81.6 °F 55.9 °F 41% 29.76 in 9.0 mi SSW 16.1 mph 26.5 mph N/A   Clear
1:52 PM 86.0 °F 84.5 °F 55.0 °F 35% 29.72 in 10.0 mi South 18.4 mph 28.8 mph N/A   Clear
2:52 PM 90.0 °F - 52.0 °F 27% 29.69 in 10.0 mi SSW 19.6 mph 26.5 mph N/A   Clear
3:52 PM 89.1 °F - 50.0 °F 26% 29.66 in 10.0 mi South 19.6 mph 25.3 mph N/A   Clear
4:52 PM 89.1 °F - 46.9 °F 23% 29.63 in 10.0 mi South 17.3 mph 23.0 mph N/A   Clear
5:52 PM 90.0 °F - 42.1 °F 19% 29.61 in 10.0 mi South 18.4 mph - N/A   Clear
6:52 PM 90.0 °F - 50.0 °F 25% 29.60 in 10.0 mi South 21.9 mph 31.1 mph N/A   Clear
7:52 PM 84.0 °F - 52.0 °F 33% 29.62 in 10.0 mi South 20.7 mph 32.2 mph N/A   Clear
8:52 PM 82.0 °F 81.2 °F 53.1 °F 37% 29.63 in 10.0 mi South 17.3 mph 24.2 mph N/A   Clear
9:52 PM 80.1 °F 80.0 °F 54.0 °F 40% 29.65 in 10.0 mi South 15.0 mph - N/A   Clear
10:52 PM 79.0 °F - 55.0 °F 44% 29.66 in 10.0 mi South 15.0 mph - N/A   Clear
11:52 PM 79.0 °F - 55.9 °F 45% 29.65 in 10.0 mi SSW 21.9 mph 32.2 mph N/A   Clear